Время (UTC), дата Ветер
(°,м/с) 
Видим.   Явления Облачность Т
(°С)
Тd
(°С)
f(%) Тe
(°С)
Pmin
(гПа)
dP
(гПа)
Po
(мм)
O2
(г/м3)
Тmin Tmax R s Состояние
почвы
00 01.09.15 280 (З) 20000 м    ясно 
+17.5 +2 35 +18  1017.9  -0.2  724  274           
03 01.09.15 260 (З) 20000 м    3/0 средняя 
[Ac trans]
+14.7 +5 52 +15  1018.5  -0.1  724  276  +13.1        сухая 
06 01.09.15 240 (ЮЗ) 20000 м    10/3 600 м средняя 
[Sc|Ac und]
+20.9 +5.3 36 +21  1017.8  -0.1  725  270           
09 01.09.15 270 (З) 8-12{13}  20000 м    5/1 600 м средняя 
[Sc|Ac trans]
+25.9 +4.2 25 +26  1015.9  -1  724  266           
12 01.09.15 270 (З) 7-11{14}  20000 м    8/8 1000 м 
[Sc]
+27.2 +6.2 26 +27  1014.6  -1  723  264           
15 01.09.15 300 (СЗ) 5{13}  20000 м    8/5 1000 м средняя, верхняя 
[Sc|Ac trans|Ci fib]
+25.7 +7.4 31 +26  1015.1  0.2  723  265    +28.3       
18 01.09.15 270 (З) 20000 м    4/1 1000 м средняя 
[Sc|Ac trans]
+22.6 +10.1 45 +25  1016.3  0.7  724  268           
21 01.09.15 270 (З) 20000 м    ясно 
+20.4 +10 51 +22  1016.9  0.2  724  270           
00 02.09.15 270 (З) 20000 м    ясно 
+19.2 +9.3 53 +21  1016.7  -0.4  724  271           
03 02.09.15 270 (З) 20000 м    3/0 средняя 
[Ac trans]
+17.7 +9.7 59 +19  1016.8  0.1  724  272  +17.1        сухая 
06 02.09.15 260 (З) 20000 м    ясно 
+26 +9.3 35 +27  1015.1  -0.2  723  264           
09 02.09.15 270 (З) 7-11{12}  20000 м    4/0 верхняя 
[Ci fib]
+29.4 +9.6 29 +31  1013.7  -0.7  723  261           
12 02.09.15 280 (З) 5{12}  20000 м    6/1 600 м средняя 
[Cu hum|Ac trans]
+29.4 +6.3 23 +29  1013.1  -0.6  722  262           
15 02.09.15 280 (З) 20000 м    4/0 средняя 
[Ac trans]
+29.6 +6.6 23 +30  1011.7  -1.3  721  261    +30.5       
18 02.09.15 280 (З) 20000 м    4/0 средняя 
[Ac trans]
+26 +6.9 30 +26  1013.1  0.8  722  264           
21 02.09.15 260 (З) 20000 м    ясно 
+23.2 +8.7 40 +23  1013.3  -0.3  722  267           
00 03.09.15 290 (З) 20000 м    ясно 
+22.3 +10.3 47 +25  1013  -0.4  721  267           
03 03.09.15 290 (З) 20000 м    ясно 
+22.5 +10.9 48 +26  1012.8  0.1  721  266  +20        сухая 
06 03.09.15 300 (СЗ) 20000 м    ясно 
+27.6 +10.5 34 +30  1012.3  0.3  722  262           
09 03.09.15 300 (СЗ) 20000 м    ясно 
+31.1 +8.4 24 +31  1011.2  -0.5  721  259           
12 03.09.15 230 (ЮЗ) 20000 м    3/3 600 м 
[Cu hum]
+33.1 +5.7 18 +33  1010  -0.9  721  258           
15 03.09.15 350 (С) 20000 м    ясно 
+30.8 +5 20 +31  1010.2  -0.2  720  260    +33.3       
18 03.09.15 360 (С) 20000 м    ясно 
+25.5 +6.6 30 +26  1011.5  0.5  721  265           
21 03.09.15 360 (С) 20000 м    ясно 
+22.1 +7.7 40 +22  1011.8  -0.3  721  267           
00 04.09.15 360 (С) 20000 м    ясно 
+22.2 +7.3 38 +22  1011.9  0.1  721  267           
03 04.09.15 360 (С) 20000 м    ясно 
+21.8 +7 38 +22  1012.3  0.4  721  268  +20.7        сухая 
06 04.09.15 080 (В) 20000 м    ясно 
+29.2 +6.8 24 +29  1011.3  0.2  721  261           
09 04.09.15 070 (В) 20000 м    4/4 600 м 
[Cu hum]
+33.6 +4.6 16 +34  1010.2  -0.4  721  258           
12 04.09.15 070 (В) 20000 м    3/3 600 м 
[Cu hum]
+34.6 +3.3 14 +35  1009.6  -0.4  720  257           
15 04.09.15 120 (ЮВ) 20000 м    3/3 600 м 
[Sc diur, vesp]
+31.4 +4.5 18 +31  1010.1  0.1  720  260    +35       
18 04.09.15 120 (ЮВ) 20000 м    ясно 
+27.4 +4.9 24 +27  1011.2  0.4  721  263           
21 04.09.15 090 (В) 20000 м    ясно 
+23.4 +5.3 31 +23  1011.6  -0.3  721  267           
00 05.09.15 130 (ЮВ) 20000 м    ясно 
+23.2 +5.2 31 +23  1011.9  0.2  721  267           
03 05.09.15 130 (ЮВ) 20000 м    ясно 
+21.2 +5.8 37 +21  1013  0.8  721  269  +20.5        сухая 
06 05.09.15 100 (В) 20000 м    ясно 
+29.7 +4.8 21 +30  1012.9  1.3  722  262           
09 05.09.15 120 (ЮВ) 20000 м    ясно 
+34.3 +1.6 13 +34  1012.2  722  258           
12 05.09.15 100 (В) 20000 м    ясно 
+35.1 +1.2 12 +35  1011.1  -0.9  722  257           
15 05.09.15 140 (ЮВ) 20000 м    ясно 
+32 +1.9 15 +32  1011.8  0.2  722  260    +35.3       
18 05.09.15 110 (В) 20000 м    ясно 
+26.4 +3.6 23 +26  1013.5  0.8  722  265           
21 05.09.15 160 (Ю) 20000 м    ясно 
+23.3 +9.3 41 +24  1014  722  266           
00 06.09.15 250 (З) 20000 м    ясно 
+19.4 +11.6 61 +24  1014.2  722  269           
03 06.09.15 300 (СЗ) 20000 м    ясно 
+21.4 +10.3 49 +24  1013.9  722  268  +18.7        сухая 
06 06.09.15 020 (С) 20000 м    ясно 
+29.2 +12.4 35 +35  1012.4  0.1  722  260           
09 06.09.15 080 (В) 20000 м    ясно 
+32.8 +8.7 23 +33  1011.1  -0.7  721  258           
12 06.09.15 040 (СВ) 20000 м    ясно 
+35 +1.5 12 +35  1009.3  -1.4  720  257           
15 06.09.15 110 (В) 20000 м    ясно 
+31.8 +4 17 +32  1009.6  -0.3  720  259    +35       
18 06.09.15 240 (ЮЗ) 20000 м    ясно 
+25.9 +9.8 36 +28  1010.4  0.1  720  263           
21 06.09.15 260 (З) 20000 м    ясно 
+22.6 +11.9 51 +27  1010.8  0.1  720  266           
00 07.09.15 290 (З) 20000 м    ясно 
+22.8 +11.9 50 +27  1011.1  0.3  720  266           
03 07.09.15 280 (З) 20000 м    1/0 средняя 
[Ac trans]
+21.5 +11.8 54 +26  1011.6  0.2  720  267  +20.8        сухая 
06 07.09.15 270 (З) 20000 м    ясно 
+27.2 +11.3 37 +31  1011.3  0.7  721  262           
09 07.09.15 300 (СЗ) 5-10{10}  20000 м    ясно 
+29.8 +11 31 +33  1010.9  721  260           
12 07.09.15 280 (З) 5{10}  20000 м    3/3 600 м 
[Cu hum]
+31.7 +9.9 26 +34  1010.5  0.1  721  258           
15 07.09.15 320 (СЗ) 2{10}  20000 м    8/0 средняя 
[Ac trans]
+28.6 +9.8 31 +30  1011.4  0.4  721  261    +31.7       
18 07.09.15 340 (С) 5{11}  20000 м  слаб. ливневой дождь  8/4 600 м кучево-дожд., средняя 
[Cb cap|Ac trans]
+22.3 +12.3 53 +27  1014.5  1.9  722  267           
21 07.09.15 020 (С) 20000 м  в посл. час ливневой дождь  3/0 средняя 
[Ac trans]
+18.1 +11.9 67 +25  1014.9  -0.3  722  271           
00 08.09.15 300 (СЗ) 20000 м  {ливн. осадки}  3/0 средняя 
[Ac trans]
+18.5 +10.9 61 +22  1014.4  -0.3  722  270           
03 08.09.15 340 (С) 20000 м    9/0 средняя 
[Ac trans]
+17.7 +11.5 67 +22  1015.7  1.1  723  271  +16        сухая 
06 08.09.15 040 (СВ) 20000 м    9/3 600 м кучево-дожд., средняя 
[Cb calv|Ac trans]
+19.6 +11.8 61 +25  1015.7  0.4  723  270           
09 08.09.15 080 (В) 20000 м    8/0 средняя, верхняя 
[Ac trans|Ci fib]
+23.5 +10.7 44 +26  1014.2  -0.8  722  266           
12 08.09.15 350 (С) 20000 м    10/3 600 м кучево-дожд., средняя 
[Cb calv|Ac und]
+24.5 +11.1 43 +28  1014.5  0.5  723  265           
15 08.09.15 290 (З) 2{10}  20000 м    10/4 600 м кучево-дожд., средняя 
[Cb calv|Ac und]
+19.8 +12.4 62 +26  1015.7  0.3  723  269    +25.5       
18 08.09.15 330 (СЗ) 20000 м  слаб. ливневой дождь  10/5 600 м кучево-дожд., средняя 
[Cb cap|Ac und]
+16.8 +14.7 87 +27  1016.8  0.6  724  272           
21 08.09.15 340 (С) 10 км  гроза, ливневой дождь  10/5 600 м кучево-дожд., средняя 
[Cb cap|Ac und]
+17 +14.4 85 +26  1016  -0.7  723  271           
00 09.09.15 050 (СВ) 1000 м  дымка{гроза, ливн. осадки}  10/10 100 м 
[Sc diur, vesp]
+16 +15.1 94 +27  1016.8  0.6  723  272           
03 09.09.15 тихо ()   3000 м  дымка{туман}  10/10 100 м 
[St]
+15.9 +15 94 +26  1017.3  0.5  724  272  +15.7      влажная 
06 09.09.15 170 (Ю) 4000 м  слаб. ливневой дождь{туман}  10/4 200 м кучево-дожд., средняя 
[Cb cap|Ac und]
+16.7 +15.9 95 +29  1018.6  1.3  725  272           
09 09.09.15 140 (ЮВ) 20000 м  {ливн. осадки}  10/5 300 м кучево-дожд., средняя 
[Cb calv|Ac und]
+19.6 +16.4 82 +32  1018.5  0.4  725  269           
12 09.09.15 340 (С) 20000 м  {ливн. осадки}  9/6 600 м кучево-дожд., средняя 
[Cb calv|Ac trans]
+21.8 +15.6 68 +32  1018.4  0.2  725  267           
15 09.09.15 050 (СВ) 20000 м    9/5 600 м кучево-дожд., средняя, верхняя 
[Cb calv|Ac trans|Ci fib]
+20.6 +15.7 74 +31  1019.1  0.5  726  268    +22.2     
18 09.09.15 020 (С) 10 км    10/6 600 м кучево-дожд., средняя 
[Cb calv|Ac und]
+18.6 +17 90 +32  1020.1  0.7  726  270           
21 09.09.15 100 (В) 4000 м  дымка  10/8 300 м кучево-дожд., средняя 
[Cb calv|Ac und]
+17.8 +16.4 92 +31  1020  -0.3  726  271           
00 10.09.15 140 (ЮВ) 4000 м  дымка  10/8 300 м кучево-дожд., средняя 
[Cb calv|Ac und]
+17.4 +16.3 93 +30  1020  726  271           
03 10.09.15 100 (В) 4000 м  дымка  10/6 270 м кучево-дожд., средняя 
[Cb calv|Ac und]
+17.2 +16.1 93 +30  1020.6  0.5  726  272  +16.6        влажная 
06 10.09.15 120 (ЮВ) 10 км    10/4 200 м средняя 
[St|Ac und]
+18.4 +16.5 89 +31  1020.7  0.4  727  271           
09 10.09.15 110 (В) 10 км    10/3 100 м средняя 
[St|Ac und]
+19.8 +17 84 +34  1020.5  727  269           
12 10.09.15 100 (В) 20000 м    10/4 300 м средняя 
[Sc|Ac und]
+21.1 +17 77 +34  1020.2  727  268           
15 10.09.15 080 (В) 20000 м    10/8 300 м средняя 
[Sc|Ac und]
+20.3 +16.6 79 +33  1020.3  0.1  726  269    +22.1       
18 10.09.15 070 (В) 20000 м    10/6 300 м средняя 
[Sc|Ac und]
+18.2 +15.9 86 +30  1021.2  0.5  727  271           
21 10.09.15 090 (В) 10 км    8/4 600 м средняя 
[Sc|Ac As]
+17.4 +16.2 93 +30  1020.9  -0.4  727  272           
00 11.09.15 070 (В) 4000 м  слаб. дождь  8/4 600 м средняя 
[Sc|Ac As]
+16.7 +15.5 93 +28  1020.5  -0.5  726  272           
03 11.09.15 080 (В) 10 км  {дождь}  10/5 600 м кучево-дожд., средняя 
[Cb calv|Ac und]
+16.5 +15.3 93 +27  1020.7  0.2  726  273  +16.4        влажная 
06 11.09.15 080 (В) 10 км  {дождь}  10/8 200 м средняя 
[St|Ac und]
+17.8 +15.8 88 +29  1020.9  0.4  727  271           
09 11.09.15 070 (В) 4000 м  дымка  10/8 200 м средняя 
[St|Ac und]
+17.8 +15.8 88 +29  1021  0.1  727  271           
12 11.09.15 060 (СВ) 20000 м    10/8 300 м средняя 
[Sc|Ac und]
+17.7 +13.9 78 +26  1021.2  0.1  727  272           
15 11.09.15 060 (СВ) 20000 м    10/6 300 м средняя 
[Sc|Ac und]
+15.9 +14 88 +23  1021.8  0.2  727  274    +18.3       
18 11.09.15 070 (В) 10 км    10/8 300 м средняя 
[Sc|Ac und]
+15.2 +13.7 91 +22  1022.3  0.4  727  275           
21 11.09.15 090 (В) 6{10}  10 км    10/8 100 м средняя 
[St|Ac und]
+14.9 +13.7 92 +21  1021.5  -0.8  727  275           
00 12.09.15 070 (В) 10 км    10/6 200 м средняя 
[St|Ac und]
+14.4 +13.1 92 +20  1021.3  -0.3  726  275           
03 12.09.15 080 (В) 7{10}  20000 м    10/5 600 м средняя 
[Sc|Ac und]
+13.9 +11.1 83 +16  1021.9  0.4  727  276  +13.8        сухая 
06 12.09.15 100 (В) 7{10}  20000 м    10/6 600 м средняя 
[Sc|Ac und]
+14.6 +10.4 76 +16  1022.6  0.8  727  276           
09 12.09.15 110 (В) 10-14{14}  20000 м    10/6 600 м средняя 
[Sc|Ac und]
+15.6 +11.4 76 +18  1022.3  727  275           
12 12.09.15 100 (В) 9-13{16}  20000 м    10/5 600 м средняя 
[Sc|Ac und]
+16.4 +10.5 68 +18  1022  -0.2  727  274           
15 12.09.15 090 (В) 8-11{14}  20000 м    10/5 600 м средняя 
[Sc|Ac und]
+15.2 +11.4 78 +18  1021.7  -0.4  727  275    +16.4       
18 12.09.15 090 (В) 10-14{14}  20000 м    10/8 300 м средняя 
[Sc|Ac und]
+15.4 +12 80 +19  1021.6  0.1  727  275           
21 12.09.15 100 (В) 9-13{15}  20000 м    10/6 600 м средняя 
[Sc|Ac und]
+15.1 +11.2 78 +17  1020.9  -0.7  726  275           
00 13.09.15 100 (В) 10-14{16}  20000 м    10/6 600 м средняя 
[Sc|Ac und]
+14.7 +9.9 73 +15  1020.5  -0.4  726  276           
03 13.09.15 110 (В) 10-13{16}  20000 м    10/8 300 м средняя 
[Sc|Ac und]
+13.9 +9.8 76 +14  1020.4  -0.3  726  276  +13.9        сухая 
06 13.09.15 100 (В) 9-13{13}  10 км  слаб. ливневой дождь  10/8 180 м кучево-дожд., средняя 
[Cb cap|Ac und]
+13 +11.8 92 +15  1020.9  0.4  726  277  +12.8         
09 13.09.15 100 (В) 9-12{14}  10 км  слаб. ливневой дождь  10/8 180 м кучево-дожд., средняя 
[Cb cap|Ac und]
+14.1 +12.9 92 +19  1020.6  726  275           
12 13.09.15 080 (В) 6{12}  10 км  слаб. ливневой дождь  10/8 100 м кучево-дожд., средняя 
[Cb cap|Ac und]
+13.9 +12.9 94 +19  1021.6  0.9  727  276           
15 13.09.15 090 (В) 8-11{11}  10 км  в посл. час ливневой дождь  10/8 180 м кучево-дожд., средняя 
[Cb calv|Ac und]
+13.8 +12.8 94 +19  1021.1  -0.5  726  276    +14.5     
18 13.09.15 090 (В) 7-11{12}  20000 м  {ливн. осадки}  10/6 300 м кучево-дожд., средняя 
[Cb calv|Ac und]
+12.9 +11.2 89 +15  1021.5  0.2  726  277           
21 13.09.15 080 (В) 5{11}  20000 м    10/6 480 м кучево-дожд., средняя 
[Cb calv|Ac und]
+12.6 +10.9 89 +15  1021.3  -0.3  726  278           
00 14.09.15 090 (В) 7-10{10}  10 км    10/8 180 м кучево-дожд., средняя 
[Cb calv|Ac und]
+12.5 +11.5 94 +15  1020.7  -0.6  726  277           
03 14.09.15 110 (В) 5{10}  10 км    10/8 100 м кучево-дожд., средняя 
[Cb calv|Ac und]
+12.4 +11.4 94 +16  1020  -0.6  725  277  +12.1        влажная 
06 14.09.15 120 (ЮВ) 10 км    10/10 200 м 
[Frnb]
+15.1 +13.5 90 +22  1019.7  0.2  725  274           
09 14.09.15 110 (В) 20000 м    10/6 300 м средняя 
[Sc|Ac und]
+18.1 +15 82 +28  1018.7  -0.4  725  271           
12 14.09.15 120 (ЮВ) 20000 м    10/5 600 м средняя 
[Sc|Ac und]
+19.4 +15.3 77 +30  1018.4  0.1  725  269           
15 14.09.15 130 (ЮВ) 20000 м    9/4 600 м средняя 
[Sc|Ac As]
+18.5 +15 80 +29  1018  -0.5  725  270    +19.9       
18 14.09.15 140 (ЮВ) 20000 м  {ливн. осадки}  8/3 600 м средняя 
[Sc diur, vesp|Ac trans]
+16.7 +15.2 91 +27  1017.8  -0.6  724  272           
21 14.09.15 140 (ЮВ) 20000 м    9/3 600 м средняя 
[Sc|Ac As]
+16.5 +14.9 90 +27  1017.4  -0.3  724  272           
00 15.09.15 300 (СЗ) 3000 м  дымка  3/0 средняя 
[Ac trans]
+14.7 +13.8 94 +24  1017.7  0.1  724  274           
03 15.09.15 210 (ЮЗ) 10 км    8/3 600 м средняя 
[Sc|Ac trans]
+14.7 +13.9 95 +23  1018  0.3  724  274  +14.1        влажная 
06 15.09.15 300 (СЗ) 4000 м  дымка  8/8 200 м 
[St]
+18.3 +16.6 90 +32  1018.1  0.8  725  270           
09 15.09.15 310 (СЗ) 20000 м    8/4 600 м средняя 
[Sc|Ac trans]
+21.1 +15 68 +31  1017.8  0.2  725  268           
12 15.09.15 330 (СЗ) 20000 м    8/4 600 м средняя 
[Cu med, cong|Ac trans]
+22.2 +14.2 61 +30  1017.3  -0.3  725  267           
15 15.09.15 330 (СЗ) 20000 м    8/5 600 м средняя 
[Sc diur, vesp|Ac trans]
+20 +13.6 67 +27  1017.9  0.1  725  269    +23       
18 15.09.15 310 (СЗ) 20000 м    8/4 600 м средняя 
[Sc|Ac trans]
+17.3 +13 76 +24  1018.7  0.3  725  272           
21 15.09.15 300 (СЗ) 20000 м    10/5 600 м средняя 
[Sc|Ac und]
+17.3 +12.4 73 +24  1018.2  -0.5  725  272           
00 16.09.15 300 (СЗ) 20000 м    9/4 600 м средняя 
[Sc|Ac trans]
+16.3 +12.6 79 +23  1017.9  -0.4  724  273           
03 16.09.15 320 (СЗ) 20000 м    6/6 1000 м 
[Sc]
+15.5 +12.7 83 +22  1018.7  0.6  725  274  +15.4        сухая 
06 16.09.15 010 (С) 10 км    9/9 200 м 
[St]
+16.9 +14.1 84 +25  1019.7  1.2  726  272           
09 16.09.15 050 (СВ) 20000 м    8/8 300 м 
[St]
+20.6 +13.2 63 +27  1019.1  0.1  726  269           
12 16.09.15 040 (СВ) 20000 м    8/8 600 м 
[Sc]
+20.4 +12 58 +25  1019.2  0.1  726  270           
15 16.09.15 050 (СВ) 20000 м    3/3 1000 м 
[Sc]
+19.2 +11.3 60 +24  1019.7  0.3  726  271    +21.6       
18 16.09.15 070 (В) 20000 м    ясно 
+15 +9.8 71 +17  1021.4  0.9  726  276           
21 16.09.15 100 (В) 20000 м    ясно 
+12.5 +9.1 80 +13  1021.7  -0.2  726  278           
00 17.09.15 100 (В) 20000 м    ясно 
+11.1 +8.2 82 +10  1021.7  -0.3  726  280           
03 17.09.15 110 (В) 20000 м    6/0 верхняя 
[Ci fib]
+10.1 +7.9 86 +10  1022  0.1  726  281  +9.8        сухая 
06 17.09.15 100 (В) 20000 м    8/0 верхняя 
[Ci fib]
+17 +7.7 54 +17  1021.7  727  274           
09 17.09.15 090 (В) 8-11{13}  20000 м    4/0 верхняя 
[Ci fib]
+22.2 +2.9 28 +22  1020.7  -0.2  727  270           
12 17.09.15 090 (В) 7-10{12}  20000 м    4/0 верхняя 
[Ci fib]
+23.1 +3.5 28 +23  1019.9  -0.5  726  269           
15 17.09.15 100 (В) 5{11}  20000 м    6/0 верхняя 
[Ci fib]
+18.8 +4.3 38 +19  1020.7  726  273    +23.2       
18 17.09.15 100 (В) 20000 м    3/0 верхняя 
[Ci fib]
+14.6 +7 60 +14  1021.6  0.2  727  277           
21 17.09.15 090 (В) 20000 м    ясно 
+11.9 +7.1 72 +11  1022.1  727  279           
00 18.09.15 100 (В) 20000 м    ясно 
+11.7 +7.1 73 +10  1022  -0.2  726  279           
03 18.09.15 090 (В) 20000 м    3/0 верхняя 
[Ci fib]
+10.3 +6 75 +9  1022.4  0.1  726  281  +10.2        сухая 
06 18.09.15 110 (В) 8-11{12}  20000 м    3/0 верхняя 
[Ci fib]
+18.9 +5.8 42 +19  1021.7  0.9  727  273           
09 18.09.15 110 (В) 10-14{15}  20000 м    1/0 верхняя 
[Ci fib]
+23.3 +2.3 25 +23  1021.2  0.2  727  270           
12 18.09.15 100 (В) 9-12{16}  20000 м    3/0 верхняя 
[Ci fib]
+24.4 +1.6 22 +24  1020.6  -0.4  727  269           
15 18.09.15 100 (В) 8-10{13}  20000 м    8/0 верхняя 
[Ci]
+20.5 +1 27 +21  1021.3  0.1  727  272    +24.5       
18 18.09.15 100 (В) 6{10}  20000 м    3/0 средняя 
[Ac trans]
+15.6 +1.1 37 +15  1022.1  0.1  727  277           
21 18.09.15 110 (В) 20000 м    ясно 
+14.2 +3.6 49 +13  1021.9  -0.4  727  278           
00 19.09.15 110 (В) 20000 м    ясно 
+12.1 +6.5 69 +11  1022  -0.2  726  279           
03 19.09.15 110 (В) 20000 м    1/0 средняя 
[Ac trans]
+9.5 +6.2 80 +9  1023.1  0.6  727  282  +9.5        сухая 
06 19.09.15 120 (ЮВ) 7-10{10}  20000 м    ясно 
+17.9 +8.2 53 +18  1022.2  0.6  727  274  +9.3         
09 19.09.15 110 (В) 9-13{14}  20000 м    ясно 
+23 +7.3 36 +23  1020.8  -0.4  727  269           
12 19.09.15 100 (В) 9-12{14}  20000 м    ясно 
+25.3 +7.4 32 +25  1019.1  -1.2  726  267           
15 19.09.15 090 (В) 7{13}  20000 м    ясно 
+21.5 +10 48 +23  1019.1  -0.5  726  269    +25.3       
18 19.09.15 100 (В) 20000 м    ясно 
+16.6 +8.6 59 +16  1019.7  -0.3  725  274           
21 19.09.15 110 (В) 20000 м    ясно 
+14.8 +8.3 65 +14  1018.8  -1.2  725  275           
00 20.09.15 100 (В) 20000 м    ясно 
+11.6 +8.4 81 +11  1019  -0.4  724  278           
03 20.09.15 140 (ЮВ) 0300 м  туман  ?/?  
+12.2 +11.4 95 +16  1018.5  -0.3  724  277  +11.5        сухая 
06 20.09.15 130 (ЮВ) 7{10}  20000 м  {туман}  9/6 300 м средняя 
[Sc|Ac trans]
+16.1 +12.6 80 +22  1017.4  -0.3  724  273           
09 20.09.15 130 (ЮВ) 7-11{12}  20000 м    ясно 
+23.9 +12 47 +29  1014.6  -1.4  723  265           
12 20.09.15 100 (В) 7-10{11}  20000 м    ясно 
+27.3 +10.1 34 +29  1012.3  -1.6  722  263           
15 20.09.15 100 (В) 6{11}  20000 м    ясно 
+22.6 +12.9 54 +29  1012.7  -0.3  721  266    +27.6       
18 20.09.15 120 (ЮВ) 20000 м    ясно 
+17.5 +12.8 74 +24  1013.1  -0.6  721  270           
21 20.09.15 120 (ЮВ) 20000 м    ясно 
+16.4 +12.8 79 +22  1012.2  -1  720  271           
00 21.09.15 140 (ЮВ) 10 км    ясно 
+14.2 +13 92 +20  1011.8  -0.8  720  273           
03 21.09.15 130 (ЮВ) 0200 м  туман  ?/?  
+14.3 +13.5 95 +21  1011.4  -0.4  719  273  +13.6        сухая 
06 21.09.15 140 (ЮВ) 20000 м  {туман}  3/3 300 м 
[St]
+19.5 +14.4 72 +29  1010.4  719  267           
09 21.09.15 120 (ЮВ) 20000 м    ясно 
+27.5 +11.5 37 +32  1008.7  -0.3  719  261           
12 21.09.15 100 (В) 20000 м    ясно 
+29.4 +11.5 33 +34  1007.6  -0.8  718  259           
15 21.09.15 110 (В) 20000 м    3/0 средняя 
[Ac trans]
+24.4 +13.8 52 +32  1008.6  0.3  719  263    +29.8       
18 21.09.15 110 (В) 20000 м    4/0 средняя 
[Ac trans]
+19.3 +13.6 70 +27  1010  0.4  719  268           
21 21.09.15 110 (В) 20000 м    3/0 средняя 
[Ac trans]
+17.8 +13.6 76 +25  1010  -0.2  719  269           
00 22.09.15 150 (ЮВ) 20000 м    3/0 средняя 
[Ac trans]
+15.1 +13.6 91 +23  1010.8  0.3  719  272           
03 22.09.15 130 (ЮВ) 20000 м    4/1 600 м верхняя 
[Sc|Ci fib]
+15.2 +13.8 91 +23  1011.1  0.2  719  272  +14.8        сухая 
06 22.09.15 150 (ЮВ) 20000 м    3/0 верхняя 
[Ci fib]
+22.8 +13.6 56 +30  1010.6  0.9  720  265           
09 22.09.15 030 (СВ) 20000 м    ясно 
+27.9 +13.2 40 +35  1009.8  720  261           
12 22.09.15 060 (СВ) 20000 м    ясно 
+29.8 +10.7 31 +33  1008.6  -0.8  719  259           
15 22.09.15 100 (В) 20000 м    3/0 средняя, верхняя 
[Ac trans|Ci fib]
+24 +13.3 51 +31  1010.3  0.7  720  264    +29.9       
18 22.09.15 110 (В) 20000 м    3/0 средняя, верхняя 
[Ac trans|Ci fib]
+19.3 +14.4 73 +29  1011.7  0.5  720  268           
21 22.09.15 130 (ЮВ) 20000 м    1/0 средняя 
[Ac trans]
+17.9 +14 78 +26  1011.7  -0.2  720  269           
00 23.09.15 130 (ЮВ) 20000 м    ясно 
+16.3 +14.1 87 +24  1012.1  0.1  720  271           
03 23.09.15 160 (Ю) 20000 м    1/0 средняя 
[Ac trans]
+15.3 +13.6 90 +23  1012.6  0.3  720  272  +15.3        сухая 
06 23.09.15 100 (В) 20000 м    ясно 
+21 +15 69 +31  1012.6  0.9  721  267           
09 23.09.15 090 (В) 20000 м    ясно 
+26.7 +14.8 48 +36  1012.1  0.5  721  262           
12 23.09.15 080 (В) 20000 м    ясно 
+28.5 +13.3 39 +35  1012  0.2  722  261           
15 23.09.15 120 (ЮВ) 20000 м    3/0 средняя 
[Ac trans]
+24.8 +12 45 +30  1013.5  0.8  722  264    +29       
18 23.09.15 120 (ЮВ) 20000 м    3/0 средняя 
[Ac trans]
+21.1 +11.6 55 +25  1015.1  0.9  723  268           
21 23.09.15 110 (В) 20000 м    3/0 средняя 
[Ac trans]
+17.3 +12.9 75 +24  1015.8  0.1  723  271           
00 24.09.15 100 (В) 20000 м    3/0 средняя 
[Ac trans]
+15.3 +14.2 93 +24  1016.2  723  273           
03 24.09.15 120 (ЮВ) 0500 м  туман  ?/?  
+15.5 +14.7 95 +24  1016.8  0.6  723  273  +14.1         
06 24.09.15 120 (ЮВ) 20000 м  {туман}  10/10 300 м 
[St]
+17.8 +14.8 83 +27  1017.3  0.9  724  271           
09 24.09.15 100 (В) 6{10}  20000 м    3/0 средняя 
[Ac trans]
+22.4 +14.5 61 +31  1016.4  724  267           
12 24.09.15 100 (В) 8-10{11}  20000 м    ясно 
+24.3 +14.4 54 +33  1016  0.1  724  265           
15 24.09.15 110 (В) 6{12}  20000 м    6/0 средняя 
[Ac trans]
+24 +13.8 53 +32  1016.1  0.1  724  265    +25.3       
18 24.09.15 110 (В) 8-12{12}  20000 м    6/0 средняя 
[Ac trans]
+20.8 +10.8 53 +24  1017.6  0.8  725  269           
21 24.09.15 110 (В) 6{12}  20000 м    4/0 средняя 
[Ac trans]
+16.8 +10.7 67 +20  1017.7  -0.6  724  273           
00 25.09.15 120 (ЮВ) 20000 м    3/0 средняя 
[Ac trans]
+14.5 +11.7 83 +18  1017.9  -0.2  724  275           
03 25.09.15 120 (ЮВ) 10 км    8/8 150 м 
[St]
+13.2 +12.1 93 +18  1018.4  0.2  724  276  +13.2        сухая 
06 25.09.15 110 (В) 20000 м    9/9 200 м 
[St]
+16.5 +13.2 81 +23  1018.5  0.8  725  273           
15 25.09.15 100 (В) 8-11{14}  20000 м    8/0 средняя 
[Ac trans]
+23 +5.2 31 +23  1016.9  0.2  724  268    +25.8       
18 25.09.15 100 (В) 7-10{12}  20000 м    3/0 средняя 
[Ac trans]
+19.2 +6.1 42 +19  1017.6  0.1  724  272           
21 25.09.15 110 (В) 5{10}  20000 м    ясно 
+15.4 +8.8 65 +15  1018.3  724  275           
00 26.09.15 120 (ЮВ) 20000 м    ясно 
+12.4 +9.9 85 +14  1018.4  -0.4  724  277           
03 26.09.15 110 (В) 20000 м    3/3 200 м 
[St]
+11.9 +10.7 92 +14  1018.6  0.1  724  278  +11.6        сухая 
09 26.09.15 100 (В) 9-14{14}  20000 м    ясно 
+23 +7.6 37 +23  1016.6  -0.6  724  268           
18 26.09.15 090 (В) 7-10{10}  20000 м    4/0 средняя 
[Ac trans]
+18.8 +7.5 48 +19  1016.5  0.4  723  271           
21 26.09.15 110 (В) 5{11}  20000 м    ясно 
+15.6 +7.9 60 +15  1017.3  0.2  724  274           
00 27.09.15 110 (В) 20000 м    10/10 300 м 
[St]
+14.9 +12.8 87 +21  1016.8  -0.5  723  274           
03 27.09.15 120 (ЮВ) 20000 м    9/8 300 м средняя 
[Sc|Ac As]
+15 +12.5 85 +20  1017.4  0.6  724  274  +14.4        сухая 
06 27.09.15 120 (ЮВ) 7{10}  20000 м    8/8 300 м 
[Sc]
+17.3 +12.5 73 +22  1018  724  272           
09 27.09.15 110 (В) 10-14{14}  20000 м    ясно 
+24.4 +6.8 32 +24  1016.6  -0.2  724  267           
12 27.09.15 100 (В) 10-14{15}  20000 м    3/0 средняя 
[Ac trans]
+26.4 +6.5 28 +26  1015.2  -0.2  723  265           
15 27.09.15 120 (ЮВ) 5{15}  20000 м    ясно 
+23.1 +8.7 40 +23  1016.2  0.4  724  267    +26.5       
18 27.09.15 100 (В) 6{11}  20000 м    ясно 
+19.8 +4.6 37 +20  1017.7  0.8  724  271           
21 27.09.15 100 (В) 6{11}  20000 м    ясно 
+16.8 +6.9 52 +17  1017.6  -0.6  724  274           
00 28.09.15 140 (ЮВ) 20000 м    ясно 
+12.7 +8.3 75 +13  1018  -0.3  724  277           
03 28.09.15 120 (ЮВ) 20000 м    3/0 средняя 
[Ac trans]
+12.2 +9.5 84 +13  1018.5  0.4  724  278  +11.9        сухая 
06 28.09.15 130 (ЮВ) 20000 м    3/3 300 м 
[Sc]
+18.1 +12.1 68 +23  1018.1  0.7  725  271  +11.4         
09 28.09.15 120 (ЮВ) 6-10{11}  20000 м    ясно 
+25.4 +8.3 34 +25  1016.5  -0.4  724  266           
12 28.09.15 110 (В) 6{11}  20000 м    ясно 
+26.6 +7.7 30 +27  1015.6  -0.7  724  264           
15 28.09.15 100 (В) 4{10}  20000 м    1/0 средняя 
[Ac trans]
+23.2 +5.1 31 +23  1015.6  -0.7  723  268    +26.8       
18 28.09.15 100 (В) 20000 м    ясно 
+20.1 +6.9 42 +20  1016.3  0.2  724  270           
21 28.09.15 100 (В) 20000 м    ясно 
+16.1 +10.1 68 +18  1017.2  0.1  724  273           
00 29.09.15 100 (В) 20000 м    ясно 
+13.2 +10.7 85 +16  1016.7  0.1  723  276           
03 29.09.15 120 (ЮВ) 10 км    3/3 300 м 
[St]
+12 +10.8 92 +15  1016.4  -0.4  723  277  +11.9        сухая 
06 29.09.15 120 (ЮВ) 10 км    9/9 300 м 
[St]
+15.9 +12.5 80 +22  1015.6  0.1  722  273  +11.8         
09 29.09.15 090 (В) 20000 м    ясно 
+23 +12.1 50 +28  1013.6  -0.7  722  266           
12 29.09.15 090 (В) 20000 м    ясно 
+25.2 +11.1 41 +29  1012.4  -0.8  721  264           
15 29.09.15 100 (В) 20000 м    ясно 
+20.3 +10.5 53 +23  1013  -0.2  721  269    +25.5       
18 29.09.15 100 (В) 20000 м    ясно 
+19.6 +11 58 +23  1013.7  0.5  722  269           
21 29.09.15 090 (В) 20000 м    3/0 средняя 
[Ac trans]
+16.6 +11.4 71 +21  1014.3  0.1  722  272           
00 30.09.15 080 (В) 20000 м    4/0 средняя 
[Ac trans]
+14.2 +12.4 89 +19  1014.7  722  274           
03 30.09.15 110 (В) 10 км    8/4 300 м средняя 
[St|Ac trans]
+13.4 +12.4 94 +18  1015.5  0.5  722  275  +13        сухая 
06 30.09.15 110 (В) 20000 м    10/6 300 м средняя 
[St|Ac und]
+16.5 +13.7 84 +23  1015.7  0.8  723  272           
09 30.09.15 100 (В) 20000 м    8/8 600 м 
[Sc]
+20.1 +12.5 62 +26  1015.5  0.3  723  269           
12 30.09.15 100 (В) 6{11}  20000 м    3/3 600 м 
[Sc]
+22.6 +12.5 53 +28  1015.2  0.2  723  267           
15 30.09.15 100 (В) 3{10}  20000 м    6/0 средняя 
[Ac trans]
+19.9 +12.1 61 +26  1015.7  -0.1  723  269    +22.6       
18 30.09.15 070 (В) 20000 м    8/0 средняя 
[Ac trans]
+17.9 +12.2 69 +23  1016.8  0.7  724  271           
21 30.09.15 070 (В) 20000 м    3/0 средняя 
[Ac trans]
+15.2 +12.3 83 +20  1017.4  724  274           
00 01.10.15 080 (В) 20000 м    9/0 средняя 
[Ac As]
+15.1 +13.5 90 +22  1017.6  0.2  724  274           
03 01.10.15 070 (В) 4000 м  дымка  10/10 100 м 
[St]
+15.9 +14.7 93 +26  1017.8  0.4  724  273  +14.6        сухая 
06 01.10.15 060 (СВ) 0500 м  слаб. морось{туман}  ?/?  
+15.8 +15 95 +26  1018.4  0.5  725  273           
09 01.10.15 070 (В) 20000 м  {морось, туман}  10/8 300 м средняя 
[Sc|Ac und]
+18.5 +13.9 75 +27  1018.5  0.5  725  271           
12 01.10.15 100 (В) 20000 м  {морось, туман}  9/5 600 м средняя 
[Sc|Ac trans]
+19.9 +13.6 67 +28  1018.9  0.7  725  270           
15 01.10.15 110 (В) 20000 м    9/9 600 м 
[Sc]
+18.4 +13.5 73 +26  1019.9  0.7  726  271    +20.1       
18 01.10.15 110 (В) 20000 м    10/5 1000 м средняя 
[Sc|Ac und]
+17 +13.4 79 +25  1021.3  727  273           
21 01.10.15 050 (СВ) 20000 м    10/0 средняя 
[Ac und]
+16.7 +11.8 73 +22  1021.5  0.1  727  274           
00 02.10.15 150 (ЮВ) 20000 м    10/3 600 м средняя 
[Sc|Ac und]
+16.2 +11.9 76 +21  1021.6  0.1  727  274           
03 02.10.15 150 (ЮВ) 20000 м    9/4 600 м средняя 
[Sc|Ac trans]
+15.6 +13.8 89 +23  1021.9  0.2  727  274  +15.6        сухая 
06 02.10.15 150 (ЮВ) 20000 м    9/3 600 м средняя 
[Sc|Ac trans]
+18.2 +13 72 +25  1022.5  728  272  +15.4         
09 02.10.15 190 (Ю) 20000 м    8/3 600 м средняя 
[Sc|Ac trans]
+21.8 +12.9 57 +28  1021.5  -0.3  728  269           
12 02.10.15 310 (СЗ) 20000 м    8/3 1000 м средняя, верхняя 
[Sc|Ac trans|Ci fib]
+22.6 +12.4 52 +28  1021  -0.4  727  268           
18 02.10.15 310 (СЗ) 20000 м    3/0 средняя 
[Ac trans]
+16.8 +11.5 71 +22  1022.7  0.1  728  274           
21 02.10.15 270 (З) 20000 м    4/0 средняя 
[Ac trans]
+14.1 +11.3 83 +18  1022.7  -0.5  727  276           
Время (UTC), дата Ветер
(°,м/с) 
Видим.   Явления Облачность Т
(°С)
Тd
(°С)
f(%) Тe
(°С)
Pmin
(гПа)
dP
(гПа)
Po
(мм)
O2
(г/м3)
Тmin Tmax R s Состояние
почвы